Regional Weather Roundup
Issued by NWS

Home | Current Version | Previous Version | Graphics & Text | Print | Product List | Glossary On
Versions: 1 2 3 4 5 6 7 8 9 10 11 12 13 14 15 16 17 18 19 20 21 22 23 24 25 26 27
000
ASUS45 KCYS 252010
RWRWY

WYOMING REGIONAL WEATHER ROUNDUP
NATIONAL WEATHER SERVICE CHEYENNE WY
200 PM MDT TUE JUL 25 2017

NOTE:  "FAIR" INDICATES FEW OR NO CLOUDS BELOW 12,000 FEET
WITH NO SIGNIFICANT WEATHER AND/OR OBSTRUCTIONS TO VISIBILITY.

WYZ001-252100-
YELLOWSTONE NATIONAL PARK

CITY           SKY/WX    TMP DP  RH WIND       PRES   REMARKS
LK YELLOWSTONE   N/A     62  51  67 CALM      30.36R
W YELLOWSTONE  NOT AVBL

$$
WYZ002>013-054>058-071-098>099-252100-
NORTHERN WYOMING

CITY           SKY/WX    TMP DP  RH WIND       PRES   REMARKS
JACKSON        CLOUDY    61  55  82 CALM      30.29R
CODY           FAIR      64  44  48 NE10      30.21R
GREYBULL       FAIR      76  42  29 NW14      30.09F
WORLAND        FAIR      77  44  30 N9        30.12R
SHERIDAN       PTSUNNY   72  45  37 NW8       30.15S
BUFFALO        CLOUDY    67  46  47 NW13      30.21R
GILLETTE       FAIR      78  51  38 N16       30.11F
HULETT         FAIR      81  54  39 NE12      30.12R
NEWCASTLE      FAIR      82  45  26 NE7       30.06R

$$
WYZ014>020-022>026-101>103-252100-
CENTRAL WYOMING

CITY           SKY/WX    TMP DP  RH WIND       PRES   REMARKS
BIG PINEY      CLOUDY    71  50  47 E13G21    30.26F
PINEDALE       CLOUDY    64  48  55 SE8       30.29S
DUBOIS         CLOUDY    72  39  30 N14       30.26S
LANDER         CLOUDY    71  49  45 N6        30.19R
RIVERTON       CLOUDY    69  54  58 NE6       30.20R
CASPER         FAIR      81  46  29 N10       30.16R
DOUGLAS        FAIR      85  48  27 NW10      30.10R

$$
WYZ021-027>030-104>119-252100-
SOUTHERN WYOMING

CITY           SKY/WX    TMP DP  RH WIND       PRES   REMARKS
EVANSTON       CLOUDY    68  54  60 SW7       30.28F
KEMMERER         N/A     72  46  40 W14G20    30.28S
FORT BRIDGER   CLOUDY    74  48  39 W6        30.29S
ROCK SPRINGS   CLOUDY    68  52  56 CALM      30.25F
RAWLINS        RAIN      61  57  87 W8        30.31R FOG
SARATOGA       DRIZZLE   64  55  72 W10G17    30.31R
LARAMIE        CLOUDY    73  48  41 N14G24    30.26R
CHEYENNE       PTSUNNY   84  46  26 N12G22    30.15F
TORRINGTON     FAIR      91  49  23 W16       29.99F
PINE BLUFFS    FAIR      88  43  20 N18G30    30.08S

$$




USA.gov is the U.S. government's official web portal to all federal, state and local government web resources and services.